Alliance, NE

6:11 PM MST on February 05, 2016 (GMT -0700)
Alliance Municipal

Weather History for KAIA - March, 2013

Change the Weather History Date:

Tuesday, March 26, 2013

  Actual Average Record
Temperature  
Mean Temperature 31 °F 40 °F  
Max Temperature 55 °F 54 °F 83 °F (2012)
Min Temperature 7 °F 25 °F -3 °F (1931)
Degree Days  
Heating Degree Days 34 25  
Month to date heating degree days 803 760  
Since 1 July heating degree days 5916 6164  
Cooling Degree Days 0 0  
Month to date cooling degree days 0 0  
Year to date cooling degree days 0 0  
Moisture  
Dew Point 13 °F    
Average Humidity 50    
Maximum Humidity 84    
Minimum Humidity 16    
Precipitation  
Precipitation 0.00 in 0.05 in 0.60 in (1902)
Month to date precipitation T 0.56  
Year to date precipitation 0.52 1.12  
Sea Level Pressure  
Sea Level Pressure 30.10 in    
Wind  
Wind Speed 8 mph (SSE)    
Max Wind Speed 20 mph    
Max Gust Speed 25 mph    
Visibility 10 miles    
Events      
T = Trace of Precipitation, MM = Missing Value Source: NWS Daily Summary

Daily Weather History Graph

Daily Weather History Graph

Search for Another Location

Airport or City:

Trip Planner

Search our weather history database for the weather conditions in past years. The results will help you decide how hot, cold, wet, or windy it might be!

Date:

Astronomy

Mar. 26, 2013 Rise Set
Actual Time 6:43 AM MDT 7:10 PM MDT
Civil Twilight 6:15 AM MDT 7:38 PM MDT
Nautical Twilight 5:42 AM MDT 8:11 PM MDT
Astronomical Twilight 5:08 AM MDT 8:45 PM MDT
Moon 6:50 PM MDT (3/26) 6:01 AM MDT (3/26)
Length of Visible Light 13h 22m
Length of Day
12h 26m
Waxing Gibbous, 99% of the Moon is Illuminated
Mar 26
Waxing Gibbous
Mar 27
Full
Apr 2
Last Quarter
Apr 10
New
Apr 18
First Quarter

Hourly Weather History & Observations

Time (MDT) Temp. Windchill Dew Point Humidity Pressure Visibility Wind Dir Wind Speed Gust Speed Precip Events Conditions
12:53 AM 12.0 °F 2.7 °F 7.0 °F 80% 30.30 in 10.0 mi SSE 5.8 mph - N/A   Clear
1:53 AM 12.0 °F 4.1 °F 7.0 °F 80% 30.27 in 10.0 mi South 4.6 mph - N/A   Clear
2:53 AM 10.0 °F 1.8 °F 6.1 °F 84% 30.25 in 10.0 mi South 4.6 mph - N/A   Clear
3:53 AM 10.0 °F 0.4 °F 7.0 °F 87% 30.23 in 10.0 mi South 5.8 mph - N/A   Clear
4:53 AM 10.4 °F 0.8 °F 6.8 °F 85% 30.09 in 10.0 mi SSE 5.8 mph - N/A   Clear
5:53 AM 10.0 °F -2.9 °F 5.0 °F 80% 30.19 in 10.0 mi SSE 9.2 mph - N/A   Clear
6:53 AM 12.9 °F - 7.0 °F 77% 30.20 in 10.0 mi Calm Calm - N/A   Clear
7:53 AM 19.0 °F 13.9 °F 12.9 °F 77% 30.19 in 10.0 mi SSE 3.5 mph - N/A   Clear
8:53 AM 30.0 °F 20.5 °F 15.1 °F 54% 30.15 in 10.0 mi SSE 11.5 mph - N/A   Unknown
9:53 AM 37.0 °F 29.3 °F 16.0 °F 42% 30.13 in 10.0 mi SSE 11.5 mph - N/A   Clear
10:53 AM 46.0 °F 39.9 °F 12.0 °F 25% 30.09 in 10.0 mi South 13.8 mph - N/A   Clear
11:53 AM 48.0 °F - 10.9 °F 22% 30.06 in 10.0 mi South 13.8 mph 25.3 mph N/A   Clear
12:53 PM 50.0 °F - 10.0 °F 20% 30.03 in 10.0 mi WSW 10.4 mph - N/A   Clear
1:53 PM 52.0 °F - 9.0 °F 18% 30.01 in 10.0 mi SSW 12.7 mph 17.3 mph N/A   Clear
2:53 PM 55.0 °F - 10.9 °F 17% 29.98 in 10.0 mi SW 12.7 mph 17.3 mph N/A   Clear
3:53 PM 52.0 °F - 12.0 °F 20% 29.98 in 10.0 mi Calm Calm - N/A   Overcast
4:53 PM 53.1 °F - 9.0 °F 17% 29.98 in 10.0 mi WNW 5.8 mph - N/A   Overcast
5:53 PM 46.9 °F - 21.9 °F 37% 30.01 in 10.0 mi SSE 15.0 mph - N/A   Overcast
6:53 PM 42.1 °F 35.7 °F 23.0 °F 47% 30.04 in 10.0 mi SE 11.5 mph - N/A   Overcast
7:53 PM 39.0 °F 32.3 °F 24.1 °F 55% 30.06 in 10.0 mi ESE 10.4 mph - N/A   Overcast
8:53 PM 35.1 °F 29.3 °F 24.1 °F 64% 30.06 in 10.0 mi SSE 6.9 mph - N/A   Mostly Cloudy
9:53 PM 28.0 °F 19.3 °F 21.9 °F 78% 30.06 in 10.0 mi SSE 9.2 mph - N/A   Clear
10:53 PM 27.0 °F 21.6 °F 21.9 °F 81% 30.04 in 10.0 mi SE 4.6 mph - N/A   Clear
11:53 PM 27.0 °F 20.5 °F 23.0 °F 85% 30.06 in 10.0 mi NNE 5.8 mph - N/A   Clear